Alliance, NE

11:01 AM MDT on September 28, 2016 (GMT -0600)
Alliance Municipal

Weather History for KAIA - July, 2014

Change the Weather History Date:

Wednesday, July 23, 2014

  Actual Average Record
Temperature  
Mean Temperature 79 °F 73 °F  
Max Temperature 95 °F 89 °F 107 °F (2005)
Min Temperature 63 °F 57 °F 42 °F (1954)
Degree Days  
Heating Degree Days 0 0  
Month to date heating degree days 27 5  
Since 1 June heating degree days 126 98  
Since 1 July heating degree days 27 5  
Cooling Degree Days 14 9  
Month to date cooling degree days 161 166  
Year to date cooling degree days 211 264  
Since 1 June cooling degree days 197 254  
Growing Degree Days 28 (Base 50)    
Moisture  
Dew Point 60 °F    
Average Humidity 59    
Maximum Humidity 87    
Minimum Humidity 30    
Precipitation  
Precipitation 0.00 in 0.07 in 0.70 in (1993)
Month to date precipitation 0.12 1.85  
Year to date precipitation 12.30 10.24  
Sea Level Pressure  
Sea Level Pressure 30.12 in    
Wind  
Wind Speed 16 mph (SE)    
Max Wind Speed 28 mph    
Max Gust Speed 38 mph    
Visibility 10 miles    
Events Thunderstorm    
T = Trace of Precipitation, MM = Missing Value Source: NWS Daily Summary

Daily Weather History Graph

Daily Weather History Graph

Search for Another Location

Airport or City:

Trip Planner

Search our weather history database for the weather conditions in past years. The results will help you decide how hot, cold, wet, or windy it might be!

Date:

Astronomy

Jul. 23, 2014 Rise Set
Actual Time 5:35 AM MDT 8:19 PM MDT
Civil Twilight 5:03 AM MDT 8:51 PM MDT
Nautical Twilight 4:22 AM MDT 9:32 PM MDT
Astronomical Twilight 3:35 AM MDT 10:18 PM MDT
Moon 2:56 AM MDT (7/23) 5:49 PM MDT (7/23)
Length of Visible Light 15h 48m
Length of Day
14h 43m
Waning Crescent, 9% of the Moon is Illuminated
Jul 23
Waning Crescent
Jul 26
New
Aug 3
First Quarter
Aug 10
Full
Aug 17
Last Quarter

Hourly Weather History & Observations

Time (MDT) Temp. Heat Index Dew Point Humidity Pressure Visibility Wind Dir Wind Speed Gust Speed Precip Events Conditions
12:53 AM 70.0 °F - 61.0 °F 73% 30.14 in 10.0 mi SE 20.7 mph 26.5 mph N/A   Clear
1:53 AM 66.9 °F - 61.0 °F 81% 30.17 in 10.0 mi SE 13.8 mph - N/A   Clear
2:53 AM 64.0 °F - 60.1 °F 87% 30.16 in 10.0 mi SSE 8.1 mph - N/A   Clear
3:53 AM 64.0 °F - 60.1 °F 87% 30.17 in 10.0 mi East 5.8 mph - N/A   Clear
4:45 AM 66.9 °F - 59.0 °F 76% 30.38 in 10.0 mi NE 20.7 mph 27.6 mph N/A Thunderstorm Overcast
4:53 AM 66.9 °F - 59.0 °F 76% 30.23 in 10.0 mi NE 17.3 mph 26.5 mph N/A Thunderstorm Overcast
5:00 AM 68.0 °F - 57.9 °F 70% 30.37 in 10.0 mi ENE 16.1 mph - N/A   Overcast
5:53 AM 66.0 °F - 57.9 °F 75% 30.20 in 10.0 mi East 12.7 mph - N/A   Partly Cloudy
6:53 AM 64.9 °F - 59.0 °F 81% 30.19 in 10.0 mi SE 10.4 mph - N/A   Clear
7:53 AM 70.0 °F - 57.9 °F 65% 30.19 in 10.0 mi SE 13.8 mph - N/A   Clear
8:53 AM 73.0 °F - 57.0 °F 57% 30.19 in 10.0 mi SE 15.0 mph 20.7 mph N/A   Clear
9:53 AM 79.0 °F - 55.9 °F 45% 30.16 in 10.0 mi South 15.0 mph - N/A   Clear
10:53 AM 82.9 °F 82.1 °F 55.9 °F 39% 30.16 in 10.0 mi South 20.7 mph 26.5 mph N/A   Clear
11:53 AM 87.1 °F 84.9 °F 53.1 °F 31% 30.13 in 10.0 mi SSE 16.1 mph 28.8 mph N/A   Clear
12:53 PM 90.0 °F 87.9 °F 55.0 °F 30% 30.10 in 10.0 mi South 17.3 mph 23.0 mph N/A   Clear
1:53 PM 91.9 °F 90.0 °F 55.0 °F 29% 30.08 in 10.0 mi South 20.7 mph 28.8 mph N/A   Clear
2:53 PM 93.0 °F 93.8 °F 62.1 °F 36% 30.05 in 10.0 mi South 16.1 mph 27.6 mph N/A   Clear
3:53 PM 93.0 °F 93.8 °F 62.1 °F 36% 30.02 in 10.0 mi South 18.4 mph 26.5 mph N/A   Clear
4:53 PM 93.9 °F 94.0 °F 61.0 °F 33% 29.99 in 10.0 mi South 15.0 mph 25.3 mph N/A   Clear
5:53 PM 93.0 °F 93.0 °F 61.0 °F 34% 29.98 in 10.0 mi South 16.1 mph - N/A   Clear
6:53 PM 90.0 °F 90.3 °F 62.1 °F 39% 29.98 in 10.0 mi SSE 12.7 mph - N/A   Clear
7:53 PM 84.0 °F 85.4 °F 64.0 °F 51% 29.98 in 10.0 mi SE 15.0 mph - N/A   Clear
8:53 PM 78.8 °F - 64.4 °F 61% 30.12 in 10.0 mi SE 19.6 mph - N/A   Clear
9:53 PM 75.2 °F - 64.4 °F 69% 30.11 in 10.0 mi SSE 20.7 mph - N/A   Clear
10:53 PM 72.0 °F - 64.0 °F 76% 29.96 in 10.0 mi SSE 24.2 mph 28.8 mph N/A   Clear
11:53 PM 70.0 °F - 64.0 °F 81% 29.95 in 10.0 mi SSE 25.3 mph 31.1 mph N/A   Clear